Tracking 31027 objects as of 19-Jul-2025
HD Live streaming from Space Station
objects crossing your sky now

COSMOS 1275 DEB

Track COSMOS 1275 DEB now!
10-day predictions


NORAD ID: 19853
Int'l Code: 1981-053MN
Perigee: 923.5 km
Apogee: 1,104.3 km
Inclination: 83.0 °
Period: 105.3 minutes
Semi major axis: 7384 km
RCS: 0.0046 m2 (small)
Launch date: June 4, 1981
Source: Commonwealth of Independent States (former USSR) (CIS)
Launch site: PLESETSK MISSILE AND SPACE COMPLEX (PKMTR)

Note: This is SATELLITE DEBRIS
Your satellite tracking list
GEOTAIL
Track 1 satellite(s)




NASA's NSSDC Master Catalog

Two Line Element Set (TLE):
1 19853U 81053MH  25199.82053288  .00000730  00000-0  79853-3 0  9990
2 19853  82.9917 146.6236 0122432  72.3751 317.2426 13.68000298810541
Source of the keplerian elements: AFSPC